(432) Pythia
ephemeris date magn radius delta ra dec elong phase
Today26 Aug 202614.02.372 AU3.353 AU11h01m+15°13'11.6°4.9°
Opposition7 Jun 202710.92.029 AU1.017 AU17h06m-17°45'174.8°2.6°
(432) Pythia - 2026-08-26
astro.vanbuitenen.nl


 
-1 year
-1 month
-1 day
Now
+1 day
+1 month
+1 year

The interactive orbit chart above shows the body's path through the solar system and its position at the given date. Green and blue lines are shown perpendicular to the ecliptic plane: Green if the path is above the ecliptic plane, blue if it is below. (Left-click and drag to rotate the view; Right-click and drag to move the view; Use scroll wheel to zoom in our out.)

The orbital elements of Pythia are:

            e (Eccentricity)                : 0.1445566
            a (Semimajor axis)              : 2.3702996
            i (Inclination)                 : 12.11123
            Ω (Longitude of ascending node) : 88.71062
            ω (Argument of perihelion)      : 174.29738
            M (Mean anomaly)                : 256.98791
            Epoch                           : 2026 Jun 09

            L (Longitude of perihelion)     : 83.13412
            B (Latitude of perihelion)      : 1.19458
            P (Orbital period in years)     : 3.65            
        

The light curve chart below shows the estimated development of the minor planet's magnitude.


The all-sky chart below shows the path of the minor planet over the same period as the light curve. The current position is marked yellow.





The following chart shows the path of the minor planet in the next few days. The field of view is optimized for (~10x50) binoculars and finderscopes.




Ephemerides:
Date       Time       RA (2000)    DEC (2000)    delta   radius  elong  phase   PA    magn
2026-08-26 00:00 UT   11 01 20.4   +15 13 46     3.353    2.372   11.6    4.9    68   14.0 
2026-08-26 10:44 UT   11 02 09.2   +15 08 55     3.353    2.371   11.5    4.9    67   14.0 
2026-08-27 00:00 UT   11 03 09.6   +15 02 55     3.353    2.370   11.3    4.8    66   14.0 
2026-08-28 00:00 UT   11 04 58.9   +14 52 03     3.352    2.368   11.0    4.7    64   14.0 
2026-08-29 00:00 UT   11 06 48.2   +14 41 08     3.352    2.367   10.7    4.5    62   14.0 
2026-08-30 00:00 UT   11 08 37.5   +14 30 12     3.352    2.365   10.4    4.4    60   14.0 
2026-08-31 00:00 UT   11 10 26.9   +14 19 13     3.351    2.364   10.1    4.3    58   13.9 
2026-09-01 00:00 UT   11 12 16.3   +14 08 13     3.350    2.362    9.8    4.2    56   13.9 
2026-09-02 00:00 UT   11 14 05.7   +13 57 11     3.349    2.360    9.6    4.1    53   13.9 
2026-09-03 00:00 UT   11 15 55.2   +13 46 07     3.348    2.359    9.4    4.0    51   13.9 
2026-09-04 00:00 UT   11 17 44.7   +13 35 01     3.347    2.357    9.1    3.9    48   13.9 
2026-09-05 00:00 UT   11 19 34.2   +13 23 54     3.346    2.355    9.0    3.8    45   13.9 
2026-09-06 00:00 UT   11 21 23.8   +13 12 44     3.345    2.354    8.8    3.8    42   13.9 
2026-09-07 00:00 UT   11 23 13.5   +13 01 34     3.344    2.352    8.7    3.7    39   13.9 
2026-09-08 00:00 UT   11 25 03.1   +12 50 21     3.342    2.351    8.5    3.7    36   13.9 
2026-09-09 00:00 UT   11 26 52.9   +12 39 08     3.341    2.349    8.5    3.6    33   13.9 
2026-09-10 00:00 UT   11 28 42.6   +12 27 53     3.339    2.347    8.4    3.6    30   13.9 
2026-09-11 00:00 UT   11 30 32.4   +12 16 36     3.337    2.346    8.4    3.6    27   13.9 
2026-09-12 00:00 UT   11 32 22.2   +12 05 18     3.335    2.344    8.4    3.6    23   13.9 


    Terminology:
            
    delta:  distance between minor planet and earth in AU
    radius: distance between minor planet and sun in AU
    magn:   magnitude (brightness) estimate    
    ra:     right ascension in hours (24h = 360deg)
    dec:    declination in degrees
    elong:  elongation in degrees (angle sun-earth-minor planet)    
    phase:  phase angle in degrees (angle sun-minor planet-earth)        
    AU:     Astronomical Unit (mean distance between earth and sun: 149597870.7 km
    

Orbital elements provided by the MPC (Minor Planet Center).
Calculations by a modified version of AAPlus, a C# implementation of the AA+ project by PJ Naughter from the algorithms presented in the book "Astronomical Algorithms" by Jean Meeus.
NGC2000 dso catalog and star labels from VizieR as provided by the Strasbourg astronomical Data Center.
Tycho2 catalog from the ESO archive.